Change the Weather History Date:

Saturday, April 12, 2014

  Actual Average (KP67) Record (KP67)
Temperature  
Mean Temperature 52 °F -  
Max Temperature 66 °F 43 °F 71 °F (1998)
Min Temperature 39 °F 27 °F 0 °F (1999)
Degree Days  
Heating Degree Days 12    
Growing Degree Days 2 (Base 50)    
Moisture  
Dew Point 42 °F    
Average Humidity 77    
Maximum Humidity 100    
Minimum Humidity 43    
Precipitation  
Precipitation 0.00 in - - ()
Sea Level Pressure  
Sea Level Pressure 29.78 in    
Wind  
Wind Speed 13 mph (NNE)    
Max Wind Speed 24 mph    
Max Gust Speed 32 mph    
Visibility 10 miles    
Events      
Averages and records for this station are not official NWS values.
T = Trace of Precipitation, MM = Missing Value Source: NWS Daily Summary

Daily Weather History Graph

Daily Weather History Graph

Search for Another Location

Airport or City:

Trip Planner

Search our weather history database for the weather conditions in past years. The results will help you decide how hot, cold, wet, or windy it might be!

Date:

Astronomy

Apr. 12, 2014 Rise Set
Actual Time 6:49 AM CDT 8:14 PM CDT
Civil Twilight 6:18 AM CDT 8:45 PM CDT
Nautical Twilight 5:40 AM CDT 9:23 PM CDT
Astronomical Twilight 5:00 AM CDT 10:03 PM CDT
Moon 5:46 PM CDT (4/12) 5:25 AM CDT (4/12)
Length of Visible Light 14h 26m
Length of Day
13h 24m
Waxing Gibbous, 93% of the Moon is Illuminated
Apr 12
Waxing Gibbous
Apr 15
Full
Apr 22
Last Quarter
Apr 29
New
May 6
First Quarter

Hourly Weather History & Observations

Time (CDT) Temp. Windchill Dew Point Humidity Pressure Visibility Wind Dir Wind Speed Gust Speed Precip Events Conditions
12:15 AM 44.6 °F 37.8 °F 44.6 °F 100% 29.89 in 10.0 mi NE 15.0 mph - 0.00 in   Mostly Cloudy
12:35 AM 44.6 °F 38.8 °F 44.6 °F 100% 29.88 in 10.0 mi NE 11.5 mph - 0.00 in   Scattered Clouds
12:55 AM 44.6 °F 38.4 °F 44.6 °F 100% 29.89 in 10.0 mi NE 12.7 mph - 0.00 in   Partly Cloudy
1:15 AM 44.6 °F 40.2 °F 44.6 °F 100% 29.88 in 10.0 mi NE 8.1 mph - 0.00 in   Scattered Clouds
1:35 AM 42.8 °F 37.5 °F 42.8 °F 100% 29.90 in 10.0 mi NNE 9.2 mph - 0.00 in   Scattered Clouds
1:55 AM 42.8 °F 38.0 °F 42.8 °F 100% 29.90 in 10.0 mi NNE 8.1 mph - 0.00 in   Mostly Cloudy
2:15 AM 42.8 °F 37.5 °F 42.8 °F 100% 29.88 in 10.0 mi NE 9.2 mph - 0.00 in   Overcast
2:35 AM 42.8 °F 36.2 °F 42.8 °F 100% 29.85 in 10.0 mi East 12.7 mph - 0.00 in   Mostly Cloudy
2:55 AM 42.8 °F 35.8 °F 42.8 °F 100% 29.82 in 10.0 mi East 13.8 mph - 0.00 in   Scattered Clouds
3:15 AM 42.8 °F 34.8 °F 42.8 °F 100% 29.79 in 10.0 mi ENE 17.3 mph 20.7 mph 0.00 in   Scattered Clouds
3:35 AM 42.8 °F 35.4 °F 42.8 °F 100% 29.79 in 10.0 mi ENE 15.0 mph - 0.00 in   Mostly Cloudy
3:55 AM 42.8 °F 34.5 °F 42.8 °F 100% 29.78 in 10.0 mi ENE 18.4 mph - 0.00 in   Mostly Cloudy
4:15 AM 42.8 °F 34.8 °F 42.8 °F 100% 29.77 in 10.0 mi ENE 17.3 mph - 0.00 in   Scattered Clouds
4:35 AM 42.8 °F 34.5 °F 42.8 °F 100% 29.76 in 10.0 mi ENE 18.4 mph - 0.00 in   Clear
4:55 AM 42.8 °F 35.4 °F 42.8 °F 100% 29.76 in 10.0 mi ENE 15.0 mph - 0.00 in   Clear
5:35 AM 42.8 °F 34.5 °F 42.8 °F 100% 29.75 in 10.0 mi East 18.4 mph 21.9 mph 0.00 in   Clear
5:55 AM 41.0 °F 32.5 °F 41.0 °F 100% 29.74 in 10.0 mi East 17.3 mph - 0.00 in   Clear
6:15 AM 41.0 °F 32.5 °F 41.0 °F 100% 29.74 in 10.0 mi East 17.3 mph 23.0 mph 0.00 in   Clear
6:35 AM 41.0 °F 32.5 °F 41.0 °F 100% 29.73 in 10.0 mi East 17.3 mph - 0.00 in   Clear
6:55 AM 41.0 °F 33.5 °F 41.0 °F 100% 29.73 in 10.0 mi East 13.8 mph 21.9 mph 0.00 in   Clear
7:15 AM 41.0 °F 33.1 °F 41.0 °F 100% 29.73 in 10.0 mi ENE 15.0 mph - 0.00 in   Clear
7:35 AM 39.2 °F 30.8 °F 39.2 °F 100% 29.72 in 10.0 mi East 15.0 mph - 0.00 in   Clear
12:55 PM 57.2 °F - 42.8 °F 59% 29.73 in 10.0 mi Calm Calm - 0.00 in   Mostly Cloudy
1:55 PM 60.8 °F - 42.8 °F 52% 29.71 in 10.0 mi Calm Calm - 0.00 in   Clear
2:15 PM 62.6 °F - 42.8 °F 48% 29.70 in 10.0 mi ENE 5.8 mph - 0.00 in   Clear
2:35 PM 62.6 °F - 42.8 °F 48% 29.70 in 10.0 mi SSE 4.6 mph - 0.00 in   Clear
2:55 PM 64.4 °F - 42.8 °F 45% 29.69 in 8.0 mi SW 6.9 mph - 0.00 in   Clear
3:15 PM 64.4 °F - 42.8 °F 45% 29.70 in 10.0 mi WSW 4.6 mph - 0.00 in   Partly Cloudy
3:35 PM 64.4 °F - 42.8 °F 45% 29.69 in 10.0 mi Calm Calm - 0.00 in   Clear
3:55 PM 66.2 °F - 42.8 °F 43% 29.69 in 10.0 mi SSW 8.1 mph - 0.00 in   Clear
4:15 PM 66.2 °F - 44.6 °F 46% 29.69 in 10.0 mi North 5.8 mph - 0.00 in   Mostly Cloudy
4:35 PM 66.2 °F - 44.6 °F 46% 29.69 in 10.0 mi WNW 12.7 mph - 0.00 in   Mostly Cloudy
4:55 PM 64.4 °F - 42.8 °F 45% 29.70 in 10.0 mi NW 8.1 mph - 0.00 in   Partly Cloudy
5:15 PM 62.6 °F - 42.8 °F 48% 29.70 in 10.0 mi NW 11.5 mph - 0.00 in   Partly Cloudy
5:35 PM 62.6 °F - 42.8 °F 48% 29.71 in 10.0 mi North 10.4 mph 17.3 mph 0.00 in   Clear
5:55 PM 62.6 °F - 44.6 °F 52% 29.71 in 10.0 mi NNW 10.4 mph - 0.00 in   Clear
6:15 PM 62.6 °F - 42.8 °F 48% 29.71 in 10.0 mi North 9.2 mph - 0.00 in   Partly Cloudy
6:35 PM 60.8 °F - 42.8 °F 52% 29.72 in 10.0 mi North 8.1 mph - 0.00 in   Scattered Clouds
6:55 PM 60.8 °F - 44.6 °F 55% 29.72 in 10.0 mi NNE 11.5 mph - 0.00 in   Scattered Clouds
7:15 PM 59.0 °F - 44.6 °F 59% 29.73 in 10.0 mi NW 17.3 mph 25.3 mph 0.00 in   Mostly Cloudy
7:35 PM 55.4 °F - 42.8 °F 63% 29.74 in 10.0 mi NW 21.9 mph 28.8 mph 0.00 in   Mostly Cloudy
7:55 PM 51.8 °F - 44.6 °F 76% 29.75 in 10.0 mi NW 19.6 mph 27.6 mph 0.00 in   Partly Cloudy
8:15 PM 51.8 °F - 44.6 °F 76% 29.78 in 10.0 mi NNW 23.0 mph 31.1 mph 0.00 in   Partly Cloudy
8:35 PM 48.2 °F - 42.8 °F 82% 29.80 in 10.0 mi NNW 24.2 mph 32.2 mph 0.00 in   Mostly Cloudy
8:55 PM 46.4 °F 39.2 °F 41.0 °F 81% 29.81 in 10.0 mi NNW 18.4 mph 26.5 mph 0.00 in   Scattered Clouds
9:15 PM 46.4 °F 38.7 °F 39.2 °F 76% 29.82 in 10.0 mi NNW 20.7 mph 28.8 mph 0.00 in   Clear
9:35 PM 44.6 °F 36.4 °F 39.2 °F 81% 29.83 in 10.0 mi North 20.7 mph 27.6 mph 0.00 in   Clear
9:55 PM 44.6 °F 37.4 °F 37.4 °F 76% 29.84 in 10.0 mi North 16.1 mph - 0.00 in   Clear
10:15 PM 44.6 °F 36.9 °F 37.4 °F 76% 29.85 in 10.0 mi North 18.4 mph 24.2 mph 0.00 in   Partly Cloudy
10:35 PM 44.6 °F 36.6 °F 37.4 °F 76% 29.86 in 10.0 mi North 19.6 mph 26.5 mph 0.00 in   Mostly Cloudy
10:55 PM 44.6 °F 36.6 °F 37.4 °F 76% 29.87 in 10.0 mi North 19.6 mph 23.0 mph 0.00 in   Overcast
11:15 PM 44.6 °F 37.4 °F 37.4 °F 76% 29.87 in 10.0 mi North 16.1 mph 21.9 mph 0.00 in   Overcast
11:35 PM 44.6 °F 37.2 °F 37.4 °F 76% 29.87 in 10.0 mi North 17.3 mph 24.2 mph 0.00 in   Overcast
11:55 PM 42.8 °F 35.4 °F 37.4 °F 81% 29.87 in 10.0 mi North 15.0 mph - 0.00 in   Overcast